Weather History for KMIW - November, 2011

Change the Weather History Date:

Tuesday, November 29, 2011

  Actual Average Record
Temperature  
Mean Temperature 30 °F 29 °F  
Max Temperature 42 °F 38 °F 69 °F (1998)
Min Temperature 17 °F 20 °F 7 °F (2013)
Degree Days  
Heating Degree Days 35 36  
Month to date heating degree days 720 825  
Since 1 July heating degree days 1289 1458  
Cooling Degree Days 0 0  
Month to date cooling degree days 0 0  
Year to date cooling degree days 896 728  
Moisture  
Dew Point 17 °F    
Average Humidity 56    
Maximum Humidity 85    
Minimum Humidity 27    
Precipitation  
Precipitation 0.00 in 0.04 in 0.18 in (2010)
Month to date precipitation 1.95 2.17  
Year to date precipitation 24.78  
Sea Level Pressure  
Sea Level Pressure 30.21 in    
Wind  
Wind Speed 15 mph (NNW)    
Max Wind Speed 25 mph    
Max Gust Speed 30 mph    
Visibility 10 miles    
Events      
T = Trace of Precipitation, MM = Missing Value Source: NWS Daily Summary

Daily Weather History Graph

Daily Weather History Graph

Search for Another Location

Airport or City:

Trip Planner

Search our weather history database for the weather conditions in past years. The results will help you decide how hot, cold, wet, or windy it might be!

Date:

Astronomy

Nov. 29, 2011 Rise Set
Actual Time 7:18 AM CST 4:41 PM CST
Civil Twilight 6:46 AM CST 5:12 PM CST
Nautical Twilight 6:12 AM CST 5:47 PM CST
Astronomical Twilight 5:38 AM CST 6:20 PM CST
Moon 11:03 AM CST (11/29) 9:37 PM CST (11/29)
Length of Visible Light 10h 25m
Length of Day
9h 23m
Waxing Crescent, 24% of the Moon is Illuminated
Nov 29
Waxing Crescent
Dec 2
First Quarter
Dec 10
Full
Dec 17
Last Quarter
Dec 24
New

Hourly Weather History & Observations

Time (CST) Temp. Windchill Dew Point Humidity Pressure Visibility Wind Dir Wind Speed Gust Speed Precip Events Conditions
1:53 AM 32.0 °F 21.2 °F 26.1 °F 79% 30.14 in 10.0 mi North 16.1 mph - N/A   Clear
2:53 AM 33.1 °F 21.9 °F 26.1 °F 75% 30.15 in 10.0 mi North 18.4 mph - N/A   Clear
3:53 AM 30.9 °F 19.4 °F 25.0 °F 79% 30.16 in 10.0 mi North 17.3 mph - N/A   Clear
4:53 AM 28.9 °F 16.9 °F 24.1 °F 82% 30.19 in 10.0 mi North 17.3 mph - N/A   Clear
5:53 AM 28.0 °F 15.7 °F 21.9 °F 78% 30.21 in 10.0 mi North 17.3 mph - N/A   Clear
6:53 AM 27.0 °F 15.2 °F 21.0 °F 78% 30.22 in 10.0 mi North 15.0 mph - N/A   Clear
7:53 AM 27.0 °F 15.2 °F 21.0 °F 78% 30.24 in 10.0 mi North 15.0 mph - N/A   Clear
8:53 AM 30.0 °F 18.7 °F 23.0 °F 75% 30.25 in 10.0 mi North 16.1 mph - N/A   Clear
9:53 AM 33.1 °F 20.9 °F 21.9 °F 64% 30.25 in 10.0 mi North 21.9 mph 27.6 mph N/A   Clear
10:53 AM 36.0 °F 24.7 °F 19.9 °F 52% 30.26 in 10.0 mi North 21.9 mph 27.6 mph N/A   Clear
11:53 AM 37.9 °F 27.6 °F 19.0 °F 47% 30.24 in 10.0 mi North 20.7 mph 26.5 mph N/A   Clear
12:53 PM 39.9 °F 30.2 °F 18.0 °F 41% 30.22 in 10.0 mi North 20.7 mph - N/A   Clear
1:53 PM 42.1 °F 32.8 °F 12.9 °F 31% 30.20 in 10.0 mi North 21.9 mph 28.8 mph N/A   Clear
2:53 PM 42.1 °F 33.1 °F 10.9 °F 28% 30.19 in 10.0 mi North 20.7 mph 26.5 mph N/A   Clear
3:53 PM 39.0 °F 30.6 °F 10.0 °F 30% 30.19 in 10.0 mi North 15.0 mph - N/A   Clear
4:53 PM 34.0 °F 25.5 °F 10.9 °F 38% 30.21 in 10.0 mi NNW 11.5 mph - N/A   Clear
5:53 PM 28.0 °F 18.6 °F 12.0 °F 51% 30.22 in 10.0 mi NW 10.4 mph - N/A   Clear
6:53 PM 28.9 °F 18.6 °F 14.0 °F 54% 30.22 in 10.0 mi NW 12.7 mph - N/A   Clear
7:53 PM 27.0 °F 18.7 °F 14.0 °F 58% 30.21 in 10.0 mi NNW 8.1 mph - N/A   Clear
8:53 PM 21.0 °F 11.4 °F 12.9 °F 71% 30.21 in 10.0 mi NW 8.1 mph - N/A   Clear
9:53 PM 19.9 °F 12.1 °F 12.0 °F 71% 30.22 in 10.0 mi WNW 5.8 mph - N/A   Clear
10:53 PM 19.0 °F 9.0 °F 10.9 °F 71% 30.19 in 10.0 mi NW 8.1 mph - N/A   Clear
11:53 PM 17.1 °F 8.7 °F 10.0 °F 74% 30.18 in 10.0 mi WNW 5.8 mph - N/A   Clear